Regional Weather Roundup
Issued by NWS

Home | Current Version | Previous Version | Text Only | Print | Product List | Glossary On
Versions: 1 2 3 4 5 6 7 8 9 10 11 12 13 14 15 16 17 18 19 20 21 22 23 24 25 26 27 28 29 30 31 32 33 34 35 36 37 38 39 40 41 42 43 44 45 46 47 48 49 50
000
ASUS43 KBIS 192210
RWRND

NORTH DAKOTA REGIONAL WEATHER ROUNDUP
NATIONAL WEATHER SERVICE BISMARCK ND
400 PM CST MON FEB 19 2018

NOTE: "FAIR" INDICATES FEW OR NO CLOUDS BELOW 12,000 FEET WITH NO
SIGNIFICANT WEATHER AND/OR OBSTRUCTIONS TO VISIBILITY.


NDZ001>003-009>011-017-192300-
NORTHWEST NORTH DAKOTA

CITY           SKY/WX    TMP DP  RH WIND       PRES   REMARKS
WILLISTON      CLOUDY     5  -3  69 CALM      30.15S
MINOT          CLOUDY     8  -3  61 CALM      30.15F
MINOT AFB      MOSUNNY    8  -8  49 SW3       30.14F
$$

NDZ018>021-031>035-040>046-192300-
SOUTHWEST NORTH DAKOTA

CITY           SKY/WX    TMP DP  RH WIND       PRES   REMARKS
BISMARCK       LGT SNOW   5  -3  69 NE13      30.16R WCI -12
DICKINSON      LGT SNOW   3  -3  76 N8        30.03F VSB 1   WCI -10
GARRISON         N/A      6  -8  52 NW5       30.13F WCI  -3
HETTINGER ARPT LGT SNOW   2  -5  72 NE12      30.04R WCI -15
$$

NDZ004>008-012>016-024-026-027-054-192300-
NORTHEAST NORTH DAKOTA

CITY           SKY/WX    TMP DP  RH WIND       PRES   REMARKS
GRAND FORKS    CLOUDY     6  -4  63 N17       30.23S WCI -13
GRND FRKS AFB  PTSUNNY    5  -6  60 N14       30.23R WCI -12
DEVILS LAKE    FAIR       4  -8  57 NE9       30.19F WCI -10
$$

NDZ022-023-025-028>030-036>039-047>053-192300-
SOUTHEAST NORTH DAKOTA

CITY           SKY/WX    TMP DP  RH WIND       PRES   REMARKS
FARGO          CLOUDY     9   0  67 N22       30.16R WCI -11
JAMESTOWN      FLURRIES   6  -5  60 NE17      30.13S WCI -13
$$





USA.gov is the U.S. government's official web portal to all federal, state and local government web resources and services.